Location: Wildcat Hills Observatory
(41.6350°N, 103.6812°W)
Time: 18:07:14
(UTC-06:00)

Cosmos 1634 Rocket - Visible Passes

Search period start: 20 April 2014 00:00
Search period end: 30 April 2014 00:00
Orbit: 959 x 994 km, 82.9° (Epoch: 18 April)

Date Brightness Start Highest point End Pass type
(mag) Time Alt. Az. Time Alt. Az. Time Alt. Az.
20 Apr 6.3 02:00:17 11° ESE 02:02:39 13° E 02:05:21 10° NE visible
20 Apr 3.9 03:44:58 44° S 03:47:07 87° W 03:53:19 10° N visible
20 Apr 5.8 05:30:42 10° W 05:33:26 13° WNW 05:36:11 10° NW visible
21 Apr 5.6 02:25:59 22° ESE 02:27:49 25° E 02:32:41 10° NNE visible
21 Apr 4.3 04:10:41 35° SW 04:12:50 48° WNW 04:18:48 10° N visible
22 Apr 4.7 02:51:41 38° SE 02:53:10 45° E 02:58:59 10° NNE visible
22 Apr 5.0 04:36:22 22° WSW 04:38:44 27° WNW 04:43:54 10° NNW visible
23 Apr 6.4 01:32:48 10° E 01:34:20 11° ENE 01:35:52 10° ENE visible
23 Apr 3.9 03:17:20 58° S 03:18:40 82° E 03:24:51 10° N visible
23 Apr 5.7 05:02:02 12° W 05:04:51 15° WNW 05:08:17 10° NNW visible
24 Apr 5.7 01:58:17 20° E 01:59:28 22° E 02:03:57 10° NE visible
24 Apr 4.1 03:42:59 46° WSW 03:44:21 56° W 03:50:25 10° N visible
25 Apr 4.9 02:23:55 37° ESE 02:24:46 39° E 02:30:25 10° NNE visible
25 Apr 4.8 04:08:36 27° W 04:10:12 31° WNW 04:15:37 10° NNW visible
26 Apr 4.0 02:49:31 65° SE 02:50:14 72° E 02:56:22 10° NNE visible
26 Apr 5.5 04:34:12 15° W 04:36:15 18° WNW 04:40:14 10° NNW visible
27 Apr 5.9 01:30:25 18° E 01:31:07 19° E 01:35:09 10° NE visible
27 Apr 3.9 03:15:06 59° WSW 03:15:52 64° W 03:22:00 10° N visible
28 Apr 5.1 01:55:59 34° E 01:56:22 34° E 02:01:48 10° NNE visible
28 Apr 4.6 03:40:40 34° W 03:41:40 36° WNW 03:47:18 10° N visible
29 Apr 4.1 02:21:32 61° ESE 02:21:48 62° E 02:27:52 10° NNE visible
29 Apr 5.4 04:06:13 19° W 04:07:41 20° WNW 04:12:06 10° NNW visible
